Spencer, VA

10:00 AM EST on December 05, 2016 (GMT -0500)
Blue Ridge

Weather History for KMTV - July, 2013

Change the Weather History Date:

Thursday, July 11, 2013

  Actual Average (KGSO) Record (KGSO)
Temperature  
Mean Temperature 76 °F 79 °F  
Max Temperature 83 °F 88 °F 98 °F (1990)
Min Temperature 70 °F 69 °F 50 °F (1963)
Degree Days  
Heating Degree Days 0 0  
Month to date heating degree days 0  
Since 1 June heating degree days 6  
Since 1 July heating degree days 0  
Cooling Degree Days 12 14  
Month to date cooling degree days 148  
Year to date cooling degree days 614  
Since 1 June cooling degree days 455  
Growing Degree Days 26 (Base 50)    
Moisture  
Dew Point 71 °F    
Average Humidity 89    
Maximum Humidity 97    
Minimum Humidity 68    
Precipitation  
Precipitation 0.18 in 0.15 in 1.99 in (1960)
Month to date precipitation 1.44  
Year to date precipitation 21.87  
Sea Level Pressure  
Sea Level Pressure 29.97 in    
Wind  
Wind Speed 1 mph (SSW)    
Max Wind Speed 8 mph    
Max Gust Speed -    
Visibility 9 miles    
Events Rain , Thunderstorm    
T = Trace of Precipitation, MM = Missing Value Source: NWS Daily Summary

Daily Weather History Graph

Daily Weather History Graph

Search for Another Location

Airport or City:

Trip Planner

Search our weather history database for the weather conditions in past years. The results will help you decide how hot, cold, wet, or windy it might be!

Date:

Astronomy

Jul. 11, 2013 Rise Set
Actual Time 6:10 AM EDT 8:40 PM EDT
Civil Twilight 5:40 AM EDT 9:10 PM EDT
Nautical Twilight 5:03 AM EDT 9:47 PM EDT
Astronomical Twilight 4:22 AM EDT 10:28 PM EDT
Moon 9:21 AM EDT (7/11) 10:27 PM EDT (7/11)
Length of Visible Light 15h 29m
Length of Day
14h 29m
Waxing Crescent, 10% of the Moon is Illuminated
Jul 11
Waxing Crescent
Jul 15
First Quarter
Jul 22
Full
Jul 29
Last Quarter
Aug 6
New

Hourly Weather History & Observations

Time (EDT) Temp. Heat Index Dew Point Humidity Pressure Visibility Wind Dir Wind Speed Gust Speed Precip Events Conditions
12:15 AM 73.0 °F - 70.7 °F 92% 30.00 in 10.0 mi Calm Calm - N/A   Scattered Clouds
12:35 AM 72.7 °F - 70.9 °F 94% 30.00 in 10.0 mi Calm Calm - N/A   Clear
12:55 AM 72.9 °F - 70.9 °F 93% 29.99 in 10.0 mi Calm Calm - N/A   Scattered Clouds
1:15 AM 71.8 °F - 70.2 °F 95% 29.99 in 10.0 mi Calm Calm - N/A   Scattered Clouds
1:35 AM 72.0 °F - 70.2 °F 94% 29.99 in 10.0 mi Calm Calm - N/A   Scattered Clouds
1:55 AM 72.3 °F - 70.5 °F 94% 29.98 in 10.0 mi Calm Calm - N/A   Overcast
2:15 AM 73.0 °F - 70.9 °F 93% 29.97 in 10.0 mi Calm Calm - N/A   Overcast
2:35 AM 72.7 °F - 70.7 °F 93% 29.97 in 10.0 mi Calm Calm - N/A   Mostly Cloudy
2:55 AM 72.3 °F - 70.2 °F 93% 29.97 in 10.0 mi Calm Calm - N/A   Scattered Clouds
3:15 AM 71.8 °F - 70.0 °F 94% 29.97 in 10.0 mi Calm Calm - N/A   Clear
3:35 AM 72.0 °F - 70.2 °F 94% 29.97 in 10.0 mi Calm Calm - N/A   Mostly Cloudy
3:55 AM 72.9 °F - 70.7 °F 93% 29.97 in 10.0 mi Calm Calm - N/A   Overcast
4:15 AM 73.0 °F - 70.7 °F 92% 29.98 in 10.0 mi Calm Calm - N/A   Overcast
4:35 AM 72.5 °F - 70.3 °F 93% 29.98 in 10.0 mi Calm Calm - N/A   Overcast
4:55 AM 72.3 °F - 70.2 °F 93% 29.98 in 10.0 mi Calm Calm - N/A   Overcast
5:15 AM 71.8 °F - 70.0 °F 94% 29.97 in 10.0 mi Calm Calm - N/A   Overcast
5:35 AM 71.6 °F - 70.0 °F 95% 29.97 in 10.0 mi South 3.5 mph - N/A   Overcast
5:55 AM 71.6 °F - 70.0 °F 95% 29.97 in 10.0 mi Calm Calm - N/A   Overcast
6:15 AM 71.8 °F - 70.2 °F 95% 29.98 in 10.0 mi Calm Calm - N/A   Overcast
6:35 AM 72.1 °F - 70.3 °F 94% 29.98 in 7.0 mi Calm Calm - N/A   Overcast
6:55 AM 73.0 °F - 71.1 °F 93% 29.99 in 7.0 mi SSW 3.5 mph - N/A   Overcast
7:15 AM 73.0 °F - 70.9 °F 93% 30.00 in 7.0 mi Calm Calm - N/A   Overcast
7:35 AM 73.0 °F - 70.9 °F 93% 30.00 in 7.0 mi WSW 3.5 mph - N/A   Overcast
7:55 AM 73.0 °F - 70.7 °F 92% 30.00 in 7.0 mi SW 4.6 mph - N/A   Overcast
8:15 AM 73.2 °F - 70.7 °F 92% 30.01 in 7.0 mi Calm Calm - N/A   Overcast
8:35 AM 73.6 °F - 71.1 °F 92% 30.01 in 10.0 mi SW 5.8 mph - N/A   Overcast
8:55 AM 73.9 °F - 70.9 °F 90% 30.01 in 10.0 mi Calm Calm - N/A   Overcast
9:15 AM 73.9 °F - 70.7 °F 90% 30.01 in 10.0 mi West 3.5 mph - N/A   Overcast
9:35 AM 74.8 °F - 71.2 °F 88% 30.01 in 10.0 mi WSW 3.5 mph - N/A   Overcast
9:55 AM 76.6 °F - 71.6 °F 84% 30.01 in 10.0 mi Calm Calm - N/A   Overcast
10:15 AM 77.5 °F - 71.8 °F 82% 30.01 in 10.0 mi SSW 3.5 mph - N/A   Overcast
10:35 AM 77.9 °F - 72.0 °F 82% 30.01 in 10.0 mi WSW 3.5 mph - N/A   Overcast
10:55 AM 79.3 °F - 72.0 °F 78% 30.00 in 10.0 mi Calm Calm - N/A   Overcast
11:15 AM 81.7 °F 86.5 °F 72.1 °F 73% 30.00 in 10.0 mi Calm Calm - N/A   Overcast
11:35 AM 83.1 °F 88.1 °F 71.8 °F 68% 30.00 in 10.0 mi Calm Calm - N/A   Mostly Cloudy
11:55 AM 82.6 °F 87.8 °F 72.3 °F 71% 30.00 in 10.0 mi SE 3.5 mph - N/A   Overcast
12:15 PM 82.4 °F 87.4 °F 72.1 °F 71% 30.00 in 10.0 mi SSE 3.5 mph - N/A   Overcast
12:35 PM 78.4 °F - 73.0 °F 83% 30.00 in 4.0 mi Calm Calm - 0.02 in Rain Heavy Rain
12:55 PM 76.5 °F - 72.9 °F 89% 30.00 in 5.0 mi WSW 4.6 mph - 0.07 in Rain Heavy Rain
1:15 PM 74.5 °F - 72.3 °F 93% 29.98 in 7.0 mi SSE 3.5 mph - 0.06 in Rain Light Rain
1:35 PM 77.9 °F - 73.9 °F 88% 29.98 in 10.0 mi Calm Calm - 0.06 in   Scattered Clouds
1:55 PM 79.5 °F - 75.0 °F 86% 29.97 in 10.0 mi Calm Calm - 0.06 in   Clear
2:15 PM 81.1 °F 87.0 °F 74.7 °F 81% 29.97 in 10.0 mi SSE 3.5 mph - N/A   Scattered Clouds
2:35 PM 82.4 °F 88.7 °F 74.1 °F 76% 29.96 in 10.0 mi South 3.5 mph - N/A   Scattered Clouds
2:55 PM 82.2 °F 88.3 °F 74.1 °F 76% 29.95 in 10.0 mi Calm Calm - N/A   Scattered Clouds
3:15 PM 83.5 °F 90.0 °F 73.6 °F 72% 29.95 in 10.0 mi Calm Calm - N/A   Scattered Clouds
3:35 PM 83.7 °F 90.4 °F 73.9 °F 72% 29.94 in 10.0 mi South 3.5 mph - N/A   Scattered Clouds
3:55 PM 82.0 °F 87.0 °F 72.1 °F 72% 29.93 in 10.0 mi Calm Calm - N/A   Scattered Clouds
4:15 PM 80.8 °F 85.4 °F 73.0 °F 77% 29.95 in 10.0 mi Calm Calm - N/A   Mostly Cloudy
4:35 PM 78.4 °F - 73.8 °F 85% 29.95 in 10.0 mi WNW 8.1 mph - N/A Rain , Thunderstorm Light Thunderstorms and Rain
4:55 PM 74.8 °F - 72.3 °F 92% 29.95 in 7.0 mi NNW 6.9 mph - 0.02 in Rain , Thunderstorm Light Thunderstorms and Rain
5:15 PM 73.9 °F - 71.8 °F 93% 29.94 in 5.0 mi Calm Calm - 0.03 in Rain , Thunderstorm Light Thunderstorms and Rain
5:35 PM 74.3 °F - 72.3 °F 94% 29.94 in 10.0 mi Calm Calm - 0.03 in   Mostly Cloudy
5:55 PM 73.8 °F - 70.9 °F 91% 29.95 in 10.0 mi Calm Calm - 0.03 in   Scattered Clouds
6:15 PM 73.0 °F - 70.9 °F 93% 29.93 in 10.0 mi Calm Calm - N/A   Mostly Cloudy
6:35 PM 73.0 °F - 70.7 °F 92% 29.94 in 10.0 mi Calm Calm - N/A   Mostly Cloudy
6:55 PM 73.0 °F - 70.5 °F 92% 29.93 in 10.0 mi Calm Calm - N/A   Scattered Clouds
7:15 PM 72.7 °F - 71.1 °F 95% 29.94 in 7.0 mi Calm Calm - N/A   Clear
7:35 PM 72.1 °F - 70.7 °F 95% 29.93 in 10.0 mi Calm Calm - N/A   Mostly Cloudy
7:55 PM 72.0 °F - 70.7 °F 96% 29.93 in 10.0 mi Calm Calm - N/A   Overcast
8:15 PM 71.8 °F - 70.2 °F 95% 29.95 in 10.0 mi Calm Calm - N/A   Overcast
8:35 PM 72.0 °F - 70.2 °F 94% 29.93 in 10.0 mi Calm Calm - N/A   Overcast
8:55 PM 71.8 °F - 70.5 °F 96% 29.95 in 10.0 mi Calm Calm - N/A   Overcast
9:15 PM 71.6 °F - 70.2 °F 95% 29.95 in 10.0 mi Calm Calm - N/A   Overcast
9:35 PM 71.6 °F - 70.2 °F 95% 29.95 in 10.0 mi Calm Calm - N/A   Overcast
9:55 PM 71.6 °F - 70.3 °F 96% 29.95 in 10.0 mi Calm Calm - N/A   Overcast
10:15 PM 71.1 °F - 70.0 °F 96% 29.95 in 7.0 mi Calm Calm - N/A   Mostly Cloudy
10:35 PM 70.9 °F - 69.8 °F 96% 29.95 in 10.0 mi Calm Calm - N/A   Mostly Cloudy
10:55 PM 71.1 °F - 70.0 °F 96% 29.96 in 10.0 mi Calm Calm - N/A   Overcast
11:15 PM 70.9 °F - 69.8 °F 96% 29.95 in 10.0 mi Calm Calm - N/A   Overcast
11:35 PM 70.7 °F - 69.8 °F 97% 29.95 in 7.0 mi Calm Calm - N/A   Overcast
11:55 PM 71.1 °F - 70.0 °F 96% 29.96 in 10.0 mi Calm Calm - N/A   Overcast